Regional Weather Roundup
Issued by NWS Newport/Morehead, NC

Current Version | Previous Version | Text Only | Print | Product List | Glossary On
Versions: 1 2 3 4 5 6 7 8 9 10 11 12 13 14 15 16 17 18 19 20 21 22 23 24 25 26 27 28 29 30 31 32 33 34 35 36 37 38 39 40 41 42 43 44 45 46 47 48 49 50
000
ASUS42 KMHX 180310
RWRMHX
WEATHER ROUNDUP FOR EASTERN NORTH CAROLINA
NATIONAL WEATHER SERVICE NEWPORT/MOREHEAD CITY NC
1000 PM EST WED DEC 17 2014

NOTE: "FAIR" INDICATES FEW OR NO CLOUDS BELOW 12,000 FEET
WITH NO SIGNIFICANT WEATHER AND/OR OBSTRUCTIONS TO VISIBILITY

NCZ015>017-031-032-045>047-102-103-180400-
NORTH COAST

CITY           SKY/WX    TMP DP  RH WIND       PRES   REMARKS
EDENTON          N/A     40  39  95 CALM      30.05S
ELIZABETH CITY PTCLDY    45  37  73 SW6       30.04S
KITTY HAWK     PTCLDY    47  43  87 CALM      30.03S
MANTEO         PTCLDY    46  42  85 W3        30.05R

$$

NCZ045>047-081-094-103-104-180400-
CENTRAL COAST

CITY           SKY/WX    TMP DP  RH WIND       PRES   REMARKS
FRISCO         MOCLDY    49  47  93 W6        30.06S
SWANQUARTER      N/A     48 N/A N/A SW1       30.03S

$$

NCZ095-097-098-100-101-180400-
SOUTHERN COAST

CITY           SKY/WX    TMP DP  RH WIND       PRES   REMARKS
BEAUFORT       MOCLDY    51  49  92 W7        30.08R
CEDAR ISLAND     N/A     48 N/A N/A SW3       30.12R
JACKSONVILLE   MOCLDY    46  41  82 SW5       30.08S
PINEY ISLAND   NOT AVBL
WILMINGTON     MOCLDY    48  43  82 CALM      30.10R


$$

NCZ011>013-027>030-043-044-078>080-089-090>093-098-180400-
COASTAL PLAIN

CITY           SKY/WX    TMP DP  RH WIND       PRES   REMARKS
AHOSKIE        MOCLDY    38  36  95 CALM      30.06S
CLINTON        MOCLDY    42  41  97 CALM      30.09R
ELIZABETHTOWN  MOCLDY    42  40  89 CALM      30.09R
GOLDSBORO      MOCLDY    46  45  97 CALM      30.06S
GREENVILLE     MOCLDY    41  39  93 CALM      30.08R
HAVELOCK       PTCLDY    44  41  89 SW6       30.09R
KENANSVILLE    MOCLDY    40  38  93 CALM      30.09R
KINSTON        MOCLDY    45  40  82 SW3       30.08S
NEW BERN       CLOUDY    45  40  82 SW3       30.08S
RICHLANDS      MOCLDY    39  37  93 CALM      30.09S
ROCKY MOUNT    MOCLDY    40  38  93 CALM      30.07R
WASHINGTON     MOCLDY    42  39  89 CALM      30.06S
WHITEVILLE     MOCLDY    43  40  88 CALM      30.09R

$$

AMZ130-135-150-152-154-156-158-170-250-252-270-ANZ085-086-088-633-658-670-180400-
MARINE OBSERVATIONS

STATION/POSITION TIME  TEMP    WIND        PRES    WAVE   SWELL
                       AIR SEA DIR/SP/G            HT/PER HT/PER
                 (UTC) (F)     (DEG/KT/KT) (MB)    (FT/S) (FT/S)
CHESAPEAKE LIGHT 0200   51     250/ 13/ 14 1017.0
64 E VA BEACH    0300   54 54  270/ 12/ 14 1016.0    3/ 8   2/ 8
DUCK             0300   50 49  250/  6/  7 1016.3
2 E DUCK         0300      49                N/A     1/ 9
10 NE DUCK       0300      51                N/A     2/ 8
OREGON INLET     0300   49 51  250/  5/  6 1017.4
13E OREGON INLT  0300      53                N/A     2/ 8
HATTERAS CG      0300   52 56  260/  8/ 10 1018.2
DIAMOND BUOY     0300   58                 1018.1    3/ 7
17 S OCRACOKE    NOT AVBL
CAPE LOOKOUT     0200   56     260/  9/ 11 1018.1
BEAUFORT LAB     0300   52 53  270/  2/  4 1017.4
30 SE NEW RIVER  0300   58 61  270/ 14/ 16 1019.1    3/ 7   2/ 7
5 SE WRIGHTSVLE  0200   51 55  270/  8/ 12 1018.7
225 S CAPE HAT   0223   68 72  270/  4/  6 1019.7    5/ 7   5/ 7
41 SE CHARLESTON 0300   61 73  260/  6/  8 1019.6    1/11   2/11

$$



USA.gov is the U.S. government's official web portal to all federal, state and local government web resources and services.